Location: Newark
(50.0306°N, 2.3272°E)
Time: 15:59:27
(UTC+00:00)

Vanguard 1 Rocket - Pass Details

Date: 19 December 2019
Orbit: 650 x 4226 km, 34.3° (Epoch: 26 January)

Event Time Altitude Azimuth Distance (km) Brightness Sun altitude
Rises 17:37:05 0° 221° (SW) 8,431 13.4 -16.1°
Reaches altitude 10° 17:43:46 10° 215° (SW) 7,418 12.8 -17.1°
Maximum altitude 18:04:56 37° 159° (SSE) 4,665 10.8 -20.4°
Enters shadow 18:15:53 20° 110° (ESE) 4,770 10.5 -22.1°
Drops below altitude 10° 18:19:25 10° 100° (E) 5,185 - -22.7°
Sets 18:23:00 0° 92° (E) 5,768 - -23.3°
